STARLINK-37907

Last updated on Sun Aug 09 2026 00:02:04 GMT+0000 (Coordinated Universal Time)

1 69959U 26157S 26220.18048458 .00012702 00000+0 23597-3 0 9999 2 69959 53.1609 176.8395 0001199 93.6115 266.5031 15.49321008 4716
UTC large
Height (km)
Speed (km/s)
/
Latitude / Longitude
Inclination (degrees)
Orbital Period (minutes)
Azimuth
Elevation
Range (km)
Doppler Factor

Next 0 passes for location: London (51.5072 / 0.1276)

No passes found over London.
STARLINK-37907